AUREOLE 3

Satellite information

Favourite Embed

Satellite Type and Status

PAYLOADIN ORBIT

Key statistics

Satellite AUREOLE 3 at a glance.

Uptime

16155

Days in orbit

Revolutions

≈ 14.6

Per day

Orbit

LEO

Low Earth Orbit

Inclination

82.5

Latest

Satellite identification and parameters

Extended collection of information and parameters for AUREOLE 3.

Object identification

Identified? True

Debris? False

Object name: AUREOLE 3

International designator: 1981-094A

Object number (NORAD): 12848

Object ID (CCSDS): 12848

Country: FRANCE (FR)

Current information (Y/N): Y

RCS size: LARGE

Orbital parameters

Period: 98.909 minutes

Inclination: 82.4699 deg

SMA: 7084.642 km

Apoapsis: 1041.364 km

Periapsis: 371.651 km

RAAN: 96.7519 deg

Eccentricy: 0.04726517

Argument of periapsis: 66.3628 deg

Mean anomaly: 298.6445 deg

Mean motion: 14.55880931 rev/day

Mean motion (dot): 0.00008315 rev/day2

B* drag term: 0.00038414073 1/REarth

Two-line elements (TLE)

Creation date: Dec. 14, 2025, 3:07 a.m.

Reference frame: TEME

Reference center: EARTH

Epoch: Dec. 13, 2025, 4:14 p.m. UTC

TLE line 0: 0 AUREOLE 3

TLE line 1: 1 12848U 81094A 25347.67651640 .00008315 00000-0 38414-3 0 9991

TLE line 2: 2 12848 82.4699 96.7519 0472652 66.3628 298.6445 14.55880931233232

Live tracking on map

Real-time ground track for satellite AUREOLE 3.

In-orbit conjunctions

A list of the most updated potential collisions computed for object AUREOLE 3.

Target Orbit TCA Probability of collision Miss distance Type
FENGYUN 1C DEB SSO 2025-06-04 23:06:02 0.0001956632 918.0 (m) DEBRIS
FENGYUN 1C DEB SSO 2025-05-15 22:37:34 0.0001607584 326.0 (m) DEBRIS
FENGYUN 1C DEB SSO 2025-03-29 14:15:46 0.0001950602 335.0 (m) DEBRIS
FENGYUN 1C DEB SSO 2024-11-26 09:39:56 0.0001655186 493.0 (m) DEBRIS

Associated space launch

Joint Soviet-French satellite dedicated to magnetospheric research

AUREOLE 3 was lifted into orbit during the mission ‘Tsiklon-3 | Aureole 3’, on board a Tsiklon-3 space rocket.

The launch took place on Sept. 21, 1981, 1:10 p.m. from 32/1.

For more information about the launch, click the button.

Launch to space Tsiklon-3 | Aureole 3
Tsiklon-3 | Aureole 3

Agency: N/A

Status: Launch Successful

Launch date: Sept. 21, 1981, 1:10 p.m. UTC

Rocket: Tsiklon-3

Launch pad: 32/1

Location: Plesetsk Cosmodrome, Russian Federation

...

Latest news about this satellite

There are no fresh news available about this satellite. Check back as we update our databases every day.


Newsletter sign-up

Weekly statistics, charts and insights to help you stay on top of the space industry.